Showing default

HULIANWANG DIGUI-16, 62976

Orbit data source: Space-Track

HULIANWANG DIGUI-16, 62976 is a payload satellite owned by Zhongguo Xingwang (CN) in LEO that was launched on Tue, 11 Feb 2025 UTC via a CHANG ZHENG 8A launch vehicle from the Wenchang Satellite Launch Center (WSC). Payload-class satellites include a variety of spacecraft equipped with specific instruments for various scientific and technological missions. These include communications satellites like Starlink; space stations such as the ISS; scientific satellites like the Hubble; Earth observation satellites from companies like Planet Labs, Umbra, and HawkEye 360; GPS; miniature CubeSats for education and research; and military/defense satellites.

Loading next visibility...
Identifier
62976, 2025-030F
Orbit
LEO
Last TLE update
23 hours ago
Origin
Manufacturer
CAST
Mission
Operational Civil Communications
Bus & Motor
HWHD, Unknown motor
Mass
~800 kg wet, ~800 kg dry
Launch date (UTC)
2025-02-11 (3 months ago)
Launch vehicle
CHANG ZHENG 8A
Launch site
Wenchang Satellite Launch Center (WSC)
Object type
Payload
Rocket body
Debris
Shape & HBR
Box + 2 Pan, 10 m
Radar Cross Section
5.935 m², Large (>1 m²)

Expand to show TLE details & history

TLE from 23 hours ago
0 HULIANWANG DIGUI-16
1 62976U 25030F   25128.31963250 -.00000065  00000-0  97796-4 0  9991
2 62976  50.0168 249.2922 0001815 237.4684 122.6024 13.55102385 11980
Epoch: 2025-05-08T07:40Z
Definitive object data (Epoch: 2025-05-08T07:40:16.247Z)
Latitude
-0.00007°
Longitude
-92.16738°
Altitude
1,054.786 km
Speed
7.325 km/s
True Right ascension
16h 37m 10s
True Declination
0° 00' 00"
Sunlit
Object was in full shadow at TLE epoch
Visualization TLE readout
Latitude
37.24525°
Longitude
-56.43555°
Altitude
1,057.604 km
Speed
7.327 km/s
Apparent Right ascension
22h 24m 19s
Apparent Declination
4° 20' 11"
Sunlit
Object is in daylight
Visualization observer readout
Local Sidereal Time
15:05:03
Azimuth
73.668° E
Elevation
-12.165°
Doppler factor
1
Orbital elements
Apogee altitude
1,055.605 km
Perigee altitude
1,052.908 km
Semi-major axis
7,432.394 km
Eccentricity
0.0001815
Inclination
50.0168°
RAAN
249.2922°
Arg. of periapsis
237.4684°
True anomaly
122.61992°
Mean anomaly
122.6024°
Eccentric anomaly
122.61116°
Mean motion
3.38727 °/min
BSTAR
0.000097796
Orbital period
106.28 mins
Loading maneuver chart data...
Loading SW <> Apogee altitude chart data...
Loading historical data...
Loading historical data...
Loading historical data...
Loading historical data...
Loading historical data...
Loading historical data...
Loading historical data...

HULIANWANG DIGUI-16 Visibility forecast

Observer location: undefined°, undefined°

Span
Click to sort rows by Start time (UTC) header in descending order
Start Az.
Max El. time (UTC)
Max El. Az.
Max El.
End time (UTC)
End Az.
5 mins2025-05-09 08:35:08.922Z146.4° SSE2025-05-09 08:38:08.922Z119.741° SE12.583°2025-05-09 08:40:08.922Z101.981° ESE
11 mins2025-05-09 10:23:08.922Z212.358° SW2025-05-09 10:28:08.922Z139.301° SSE40.877°2025-05-09 10:34:08.922Z62.239° ENE
12 mins2025-05-09 12:14:08.922Z265.658° W2025-05-09 12:20:08.922Z348.62° N37.599°2025-05-09 12:26:08.922Z52.701° ENE
10 mins2025-05-09 14:08:08.922Z306.069° NW2025-05-09 14:12:08.922Z355.993° N30.129°2025-05-09 14:18:08.922Z64.009° ENE
11 mins2025-05-09 16:00:08.922Z312.406° NW2025-05-09 16:05:08.922Z28.345° NE38.926°2025-05-09 16:11:08.922Z99.258° ESE
11 mins2025-05-09 17:51:08.922Z294.559° NW2025-05-09 17:56:08.922Z234.694° WSW38.792°2025-05-09 18:02:08.922Z150.37° SSE
|